Location: Jaite
(41.2884°N, 81.5737°W)
Time: 05:26:09
(UTC+00:00)

STARLINK-80 - Pass Details

Date: 18 January 2020
Orbit: 491 x 494 km, 53.0° (Epoch: 26 February)

Event Time Altitude Azimuth Distance (km) Brightness Sun altitude
Exits shadow 11:22:25 31° 308° (NW) 882 4.1 -16.0°
Maximum altitude 11:23:07 34° 331° (NNW) 831 4.2 -15.9°
Drops below altitude 10° 11:26:38 10° 38° (NE) 1,687 6.4 -15.2°
Sets 11:28:57 0° 48° (NE) 2,571 7.5 -14.8°
